RYR662E EGHQ-EIDW

Flight info

Callsign RYR662E
Flight time N/A
Altitude 36000
Route GISOK/N0398F350 DCT NICXI/N0325F240 M17 VATRY VATRY4L
Aircraft B738/M-SDE2E3FGHIRWXY/LB1

Departure

Time N/A
Airport Cornwall Airport Newquay (EGHQ)

Arrival

Time 2026-05-07 20:34
Airport Dublin Airport (EIDW)
Time Latitude Longitude Altitude Speed Heading
2026-05-07 20:10 51.89113 -5.30720 24022 ft 377 kts 348°
2026-05-07 20:11 51.91696 -5.31460 24022 ft 377 kts 348°
2026-05-07 20:11 51.94277 -5.32200 24023 ft 377 kts 347°
2026-05-07 20:11 51.96852 -5.32940 24021 ft 377 kts 347°
2026-05-07 20:11 51.99436 -5.33683 24019 ft 377 kts 347°
2026-05-07 20:12 52.02016 -5.34425 24020 ft 377 kts 347°
2026-05-07 20:12 52.04597 -5.35169 24019 ft 377 kts 347°
2026-05-07 20:12 52.07151 -5.35905 24019 ft 377 kts 347°
2026-05-07 20:12 52.09775 -5.36663 24019 ft 377 kts 347°
2026-05-07 20:13 52.12312 -5.37397 24019 ft 377 kts 347°
2026-05-07 20:13 52.14952 -5.38161 23684 ft 380 kts 347°
2026-05-07 20:13 52.17494 -5.38898 23279 ft 376 kts 347°
2026-05-07 20:13 52.20105 -5.39654 22811 ft 373 kts 347°
2026-05-07 20:14 52.22609 -5.40381 22376 ft 369 kts 347°
2026-05-07 20:14 52.25118 -5.41110 21952 ft 365 kts 347°
2026-05-07 20:14 52.27608 -5.41835 21521 ft 362 kts 347°
2026-05-07 20:14 52.30070 -5.42552 21101 ft 359 kts 347°
2026-05-07 20:15 52.32518 -5.43267 20690 ft 356 kts 347°
2026-05-07 20:15 52.34968 -5.43983 20485 ft 350 kts 347°
2026-05-07 20:15 52.37332 -5.44680 19973 ft 354 kts 346°
2026-05-07 20:15 52.39700 -5.45628 19711 ft 346 kts 342°
2026-05-07 20:16 52.42012 -5.46717 19310 ft 344 kts 340°
2026-05-07 20:16 52.44293 -5.47842 18918 ft 342 kts 340°
2026-05-07 20:16 52.46563 -5.48965 18518 ft 340 kts 340°
2026-05-07 20:16 52.48833 -5.50080 18090 ft 339 kts 340°
2026-05-07 20:17 52.51087 -5.51176 17660 ft 338 kts 341°
2026-05-07 20:17 52.53330 -5.52259 17235 ft 336 kts 341°
2026-05-07 20:17 52.55564 -5.53333 16820 ft 333 kts 341°
2026-05-07 20:17 52.57771 -5.54390 16418 ft 331 kts 341°
2026-05-07 20:18 52.59982 -5.55448 16022 ft 329 kts 341°
2026-05-07 20:18 52.62175 -5.56498 15625 ft 327 kts 341°
2026-05-07 20:18 52.64355 -5.57541 15233 ft 325 kts 341°
2026-05-07 20:18 52.66515 -5.58575 14842 ft 323 kts 341°
2026-05-07 20:19 52.68672 -5.59610 14451 ft 322 kts 341°
2026-05-07 20:19 52.70811 -5.60636 14062 ft 320 kts 341°
2026-05-07 20:19 52.72958 -5.61667 13651 ft 319 kts 341°
2026-05-07 20:19 52.75082 -5.62688 13221 ft 318 kts 341°
2026-05-07 20:20 52.77193 -5.63704 12816 ft 315 kts 341°
2026-05-07 20:20 52.79292 -5.64715 12414 ft 313 kts 341°
2026-05-07 20:20 52.81382 -5.65722 12026 ft 311 kts 341°
2026-05-07 20:20 52.83450 -5.66720 11636 ft 309 kts 341°
2026-05-07 20:21 52.85504 -5.67713 11260 ft 306 kts 341°
2026-05-07 20:21 52.87540 -5.68698 10893 ft 305 kts 340°
2026-05-07 20:21 52.89574 -5.69682 10506 ft 303 kts 340°
2026-05-07 20:21 52.91615 -5.70674 10179 ft 300 kts 342°
2026-05-07 20:22 52.93574 -5.71621 10083 ft 288 kts 341°
2026-05-07 20:22 52.95453 -5.72530 9794 ft 285 kts 340°
2026-05-07 20:22 52.97357 -5.73456 9442 ft 284 kts 341°
2026-05-07 20:22 52.99241 -5.74375 9090 ft 282 kts 341°
2026-05-07 20:23 53.01129 -5.75294 8760 ft 281 kts 342°
2026-05-07 20:23 53.03000 -5.76206 8425 ft 279 kts 341°
2026-05-07 20:23 53.04846 -5.77107 8099 ft 279 kts 341°
2026-05-07 20:23 53.06716 -5.78020 7769 ft 278 kts 341°
2026-05-07 20:24 53.08567 -5.78925 7436 ft 277 kts 342°
2026-05-07 20:24 53.10412 -5.79826 7115 ft 276 kts 342°
2026-05-07 20:24 53.12255 -5.80727 6777 ft 276 kts 341°
2026-05-07 20:24 53.14097 -5.81629 6440 ft 276 kts 341°
2026-05-07 20:25 53.15930 -5.82526 6078 ft 276 kts 341°
2026-05-07 20:25 53.17774 -5.83431 5738 ft 275 kts 341°
2026-05-07 20:25 53.19605 -5.84329 5399 ft 273 kts 341°
2026-05-07 20:25 53.21431 -5.85228 5114 ft 275 kts 341°
2026-05-07 20:26 53.23260 -5.86131 4899 ft 273 kts 341°
2026-05-07 20:26 53.25048 -5.87010 4678 ft 262 kts 341°
2026-05-07 20:26 53.26762 -5.87850 4454 ft 250 kts 341°
2026-05-07 20:26 53.28400 -5.88658 4285 ft 244 kts 341°
2026-05-07 20:27 53.30024 -5.89461 4116 ft 241 kts 341°
2026-05-07 20:27 53.31612 -5.90248 4006 ft 236 kts 340°
2026-05-07 20:27 53.33155 -5.91012 3945 ft 225 kts 340°
2026-05-07 20:27 53.34613 -5.91730 3837 ft 211 kts 339°
2026-05-07 20:28 53.35978 -5.92406 3741 ft 199 kts 339°
2026-05-07 20:28 53.37281 -5.93051 3587 ft 191 kts 339°
2026-05-07 20:28 53.38527 -5.93668 3444 ft 182 kts 340°
2026-05-07 20:28 53.39685 -5.94353 3378 ft 171 kts 324°
2026-05-07 20:29 53.40299 -5.95884 3299 ft 157 kts 276°
2026-05-07 20:29 53.40488 -5.97698 3253 ft 160 kts 277°
2026-05-07 20:29 53.40653 -5.99506 3199 ft 153 kts 273°
2026-05-07 20:29 53.40768 -6.01270 3018 ft 153 kts 273°
2026-05-07 20:30 53.40867 -6.03034 2817 ft 151 kts 272°
2026-05-07 20:30 53.40959 -6.04766 2613 ft 148 kts 271°
2026-05-07 20:30 53.41047 -6.06467 2411 ft 145 kts 271°
2026-05-07 20:30 53.41135 -6.08145 2213 ft 144 kts 271°
2026-05-07 20:31 53.41222 -6.09827 2024 ft 145 kts 271°
2026-05-07 20:31 53.41311 -6.11514 1819 ft 145 kts 270°
2026-05-07 20:31 53.41399 -6.13193 1629 ft 145 kts 270°
2026-05-07 20:31 53.41488 -6.14863 1418 ft 141 kts 269°
2026-05-07 20:32 53.41572 -6.16440 1264 ft 129 kts 268°
2026-05-07 20:32 53.41648 -6.17893 1067 ft 122 kts 269°
2026-05-07 20:32 53.41722 -6.19310 906 ft 122 kts 272°
2026-05-07 20:32 53.41794 -6.20769 769 ft 128 kts 274°
2026-05-07 20:33 53.41877 -6.22280 583 ft 132 kts 274°
2026-05-07 20:33 53.41962 -6.23811 392 ft 132 kts 272°
2026-05-07 20:33 53.42045 -6.25335 226 ft 130 kts 272°
2026-05-07 20:33 53.42111 -6.26619 210 ft 81 kts 275°
2026-05-07 20:34 53.42139 -6.27135 211 ft 62 kts 276°
2026-05-07 20:34 53.42168 -6.27623 208 ft 32 kts 277°
2026-05-07 20:34 53.42231 -6.27938 213 ft 21 kts 297°
2026-05-07 20:34 53.42285 -6.28092 216 ft 10 kts 306°
2026-05-07 20:35 53.42348 -6.28114 217 ft 11 kts 36°
2026-05-07 20:35 53.42358 -6.27976 210 ft 13 kts 96°
2026-05-07 20:35 53.42349 -6.27819 219 ft 14 kts 95°
2026-05-07 20:35 53.42339 -6.27619 215 ft 21 kts 96°
2026-05-07 20:36 53.42322 -6.27338 213 ft 27 kts 95°
2026-05-07 20:36 53.42305 -6.27021 214 ft 27 kts 95°
2026-05-07 20:36 53.42289 -6.26723 210 ft 25 kts 95°
2026-05-07 20:36 53.42275 -6.26446 217 ft 23 kts 95°
2026-05-07 20:37 53.42266 -6.26271 210 ft 9 kts 96°
2026-05-07 20:37 53.42272 -6.26169 213 ft 10 kts 77°
2026-05-07 20:37 53.42296 -6.26079 214 ft 10 kts 36°
2026-05-07 20:37 53.42376 -6.25966 217 ft 21 kts 46°
2026-05-07 20:38 53.42490 -6.25769 210 ft 19 kts 46°
2026-05-07 20:38 53.42559 -6.25682 213 ft 11 kts 11°
2026-05-07 20:38 53.42637 -6.25724 211 ft 13 kts 333°
2026-05-07 20:38 53.42716 -6.25706 213 ft 11 kts 45°
2026-05-07 20:39 53.42728 -6.25685 210 ft 0 kts 45°
2026-05-07 20:39 53.42730 -6.25682 210 ft 2 kts 45°
2026-05-07 20:39 53.42761 -6.25630 210 ft 12 kts 45°
2026-05-07 20:40 53.42844 -6.25492 213 ft 20 kts 45°
2026-05-07 20:40 53.42927 -6.25362 216 ft 11 kts 26°
2026-05-07 20:40 53.42999 -6.25392 210 ft 13 kts 336°
2026-05-07 20:40 53.43077 -6.25449 212 ft 11 kts 336°
2026-05-07 20:41 53.43127 -6.25433 213 ft 9 kts 69°
2026-05-07 20:41 53.43150 -6.25353 213 ft 7 kts 67°
2026-05-07 20:41 53.43164 -6.25296 214 ft 1 kts 68°
2026-05-07 20:41 53.43166 -6.25291 213 ft 0 kts 67°